Temp
63 63 63 62 62 62 62 61 62 62 63 63 63 63 63 63 63 67 73 86 83 82 83 83 79 80 78 74 79 80 63 60 65 67 70 78 74 79 81 77 80 79 73 74 76
63 62 62 62 62 62 61 61 62 62 63 63 63 63 63 63 60 69 82 84 82 82 85 82 80 79 73 72 76 71 61 67 75 75 73 77 76 76 74 74 72 72 75 76 76
62 62 62 62 62 62 61 61 61 61 62 62 63 63 63 62 68 76 83 83 82 83 87 84 81 77 70 71 72 73 67 74 79 79 80 76 76 77 71 69 72 69 70 73 73
62 62 62 62 61 61 61 60 60 61 61 62 63 63 63 60 61 80 82 81 82 84 84 83 79 72 69 69 77 70 78 79 80 81 79 76 78 75 76 75 78 76 74 73 72
61 61 61 61 61 61 60 60 60 60 61 62 63 64 62 62 71 84 85 85 84 86 84 80 75 73 68 72 76 74 79 81 81 80 80 80 76 75 75 78 79 77 75 73 73
61 61 61 60 60 60 60 60 59 60 61 62 63 65 60 61 82 83 84 86 86 84 82 81 78 80 73 73 72 79 81 78 79 79 79 77 75 77 76 79 77 76 73 74 74
60 61 61 60 60 60 59 59 59 60 61 62 64 66 60 70 82 80 80 80 83 84 80 84 84 77 75 74 81 80 76 76 76 78 77 79 70 72 77 78 75 75 74 76 76
60 60 60 60 60 59 58 58 59 60 61 63 65 59 61 81 78 81 80 84 85 83 83 86 84 78 73 78 78 73 73 66 75 76 78 77 64 74 77 76 72 75 75 76 76
60 60 60 60 59 58 57 58 59 62 63 65 54 54 63 81 77 81 83 83 83 81 81 95 81 72 76 68 64 67 61 65 72 77 75 73 67 74 77 76 72 74 74 76 76
60 59 59 59 58 57 56 57 59 60 63 67 70 57 67 71 77 84 80 84 80 81 82 80 71 67 64 64 56 61 60 67 67 73 72 69 68 69 74 76 74 74 75 75 76
60 59 59 59 58 56 52 54 59 56 55 61 61 65 72 76 77 79 83 81 78 78 67 69 67 60 66 67 69 67 60 63 69 76 71 66 67 71 73 75 73 73 74 75 77
59 58 59 57 57 56 51 54 60 62 58 66 67 68 71 70 70 77 79 76 71 67 67 67 61 71 72 71 69 65 63 64 70 76 72 66 66 68 71 73 75 74 74 76 77
58 58 58 57 56 50 50 60 64 66 54 64 65 67 70 74 71 74 80 75 70 65 65 62 70 76 72 67 68 62 59 65 66 69 70 67 62 65 70 73 76 76 77 77 76
59 58 57 56 51 49 55 60 61 64 51 60 62 73 72 74 69 81 79 79 69 68 67 65 75 74 69 68 68 54 72 72 70 63 58 65 52 59 63 66 70 72 76 76 77
58 57 56 55 46 53 61 58 60 64 43 66 65 76 69 71 70 73 81 77 70 70 69 68 68 68 68 70 72 69 73 70 68 60 56 60 54 57 60 64 66 69 72 74 75
57 56 56 51 52 52 56 58 63 53 46 60 69 67 67 65 69 74 75 78 76 71 67 70 74 72 72 73 73 74 68 63 57 55 50 54 54 54 56 61 65 69 72 73 72
55 54 54 56 55 55 56 62 51 45 64 61 60 64 62 60 65 69 67 64 64 58 55 66 69 71 74 64 68 66 58 50 50 49 50 48 54 57 63 66 67 68 68 71 73
53 52 54 54 50 54 60 58 41 59 58 64 63 61 62 64 61 63 63 62 63 63 56 56 59 67 73 71 67 58 58 51 45 45 50 52 50 59 67 68 69 71 71 72 70
52 49 46 49 55 52 60 48 51 56 65 64 61 60 56 63 65 61 61 62 67 66 59 54 59 72 72 71 72 59 56 56 48 44 49 51 56 65 66 66 68 69 70 72 73
47 49 54 54 57 59 56 49 55 63 68 64 57 60 56 58 61 59 60 66 69 71 66 59 56 63 71 71 70 63 66 58 51 45 42 48 50 53 59 63 66 67 70 71 73
49 55 60 55 57 59 52 51 60 68 68 63 58 58 57 61 61 59 62 66 73 67 69 60 58 64 66 62 58 63 57 53 52 49 45 44 50 59 61 64 65 68 70 72 69
46 54 59 58 57 45 51 56 60 67 68 69 65 66 63 63 60 59 65 67 72 70 66 62 56 53 56 67 67 62 57 55 52 48 44 47 53 64 63 67 67 67 70 69 69
47 49 61 61 51 51 53 60 64 65 66 65 64 66 66 64 58 62 65 73 74 72 68 66 54 51 57 62 64 62 58 50 51 49 47 49 53 64 65 65 67 67 68 67 69
48 52 56 55 51 53 52 58 60 70 68 70 67 68 63 60 58 61 66 72 72 71 70 66 51 55 54 56 58 57 60 57 54 50 48 50 53 59 61 62 64 66 66 66 67
48 51 53 52 58 52 54 59 61 61 67 67 66 70 66 57 57 61 64 67 72 67 65 64 55 53 55 61 60 57 58 60 54 52 53 54 54 57 60 61 63 65 67 67 67
50 51 53 52 55 53 54 55 61 64 64 65 65 70 67 62 67 63 67 61 65 64 61 59 55 52 55 61 62 56 59 61 60 58 56 56 54 59 62 65 63 64 66 64 64
49 52 52 52 54 53 57 60 64 66 70 72 71 68 68 66 68 64 64 64 65 65 58 57 55 52 49 55 58 54 55 56 57 58 58 53 55 61 60 61 60 60 62 61 62
MSLP
1014.98 1014.72 1014.51 1014.24 1013.99 1013.87 1013.66 1013.42 1013.07 1012.66 1012.22 1011.80 1011.48 1010.86 1010.21 1009.66 1008.94 1008.73 1007.90 1005.72 1005.46 1005.45 1005.67 1005.91 1006.20 1006.36 1006.60 1006.74 1006.54 1006.77 1007.63 1007.73 1007.06 1006.75 1006.28 1006.08 1006.25 1006.60 1006.88 1007.50 1008.04 1008.72 1009.51 1010.16 1011.55
1014.82 1014.63 1014.39 1014.07 1013.82 1013.57 1013.43 1013.20 1012.89 1012.62 1012.22 1011.83 1011.42 1010.76 1010.26 1009.81 1009.09 1007.65 1005.26 1004.61 1004.95 1005.33 1005.81 1006.00 1006.08 1006.21 1006.51 1006.63 1006.51 1006.74 1007.26 1006.58 1005.72 1005.54 1005.74 1005.88 1006.08 1006.49 1007.13 1007.70 1008.74 1009.37 1009.98 1010.72 1011.61
1014.67 1014.39 1014.20 1013.93 1013.71 1013.49 1013.24 1013.06 1012.84 1012.53 1012.23 1011.81 1011.42 1010.79 1010.22 1009.86 1008.68 1006.23 1004.79 1004.50 1004.92 1005.35 1005.46 1005.71 1006.05 1006.27 1006.50 1006.35 1006.23 1006.41 1006.01 1005.45 1004.94 1005.01 1005.29 1005.64 1006.07 1006.65 1007.29 1007.99 1008.49 1009.43 1010.35 1011.06 1011.83
1014.72 1014.37 1014.02 1013.75 1013.52 1013.28 1013.08 1012.89 1012.68 1012.42 1012.15 1011.74 1011.22 1010.65 1010.08 1009.74 1007.90 1005.26 1004.67 1004.42 1004.53 1005.08 1005.49 1005.64 1006.07 1006.14 1006.21 1006.13 1005.50 1005.70 1004.83 1004.71 1004.33 1004.78 1005.32 1005.52 1006.15 1006.74 1007.04 1007.41 1007.79 1008.93 1009.87 1011.07 1011.84
1014.65 1014.30 1013.96 1013.65 1013.42 1013.14 1012.89 1012.67 1012.49 1012.22 1011.92 1011.58 1011.13 1010.55 1009.84 1009.17 1006.57 1004.74 1004.60 1004.54 1004.69 1004.91 1005.04 1004.97 1005.16 1005.46 1005.77 1005.56 1005.05 1004.92 1004.53 1004.08 1004.29 1004.67 1005.11 1005.50 1006.24 1006.66 1007.10 1007.66 1008.42 1009.56 1010.34 1010.96 1011.39
1014.62 1014.17 1013.81 1013.55 1013.24 1012.95 1012.74 1012.55 1012.34 1012.09 1011.79 1011.49 1011.08 1010.58 1010.04 1008.30 1004.73 1004.56 1004.56 1004.24 1004.26 1004.35 1004.51 1004.73 1004.72 1004.84 1004.99 1004.96 1004.79 1004.34 1004.05 1004.25 1004.34 1004.73 1005.23 1005.97 1006.36 1006.59 1007.22 1007.84 1008.87 1009.44 1010.32 1011.00 1011.23
1014.57 1014.09 1013.71 1013.38 1013.03 1012.77 1012.53 1012.36 1012.17 1011.90 1011.68 1011.41 1011.04 1010.63 1009.68 1005.89 1004.44 1004.43 1004.23 1004.09 1003.91 1004.04 1004.33 1004.35 1004.22 1004.61 1004.47 1004.64 1004.11 1004.15 1004.19 1004.45 1004.53 1004.82 1005.34 1005.85 1006.67 1006.81 1007.26 1007.90 1008.70 1009.56 1009.93 1010.67 1011.23
1014.47 1014.03 1013.65 1013.25 1012.83 1012.55 1012.38 1012.15 1011.84 1011.60 1011.40 1011.24 1010.98 1010.60 1008.48 1004.56 1004.50 1004.49 1003.81 1003.50 1003.44 1003.71 1003.88 1003.65 1004.11 1004.61 1004.82 1004.78 1004.50 1004.65 1004.70 1005.21 1004.58 1005.01 1005.37 1005.82 1006.42 1006.65 1007.15 1007.93 1008.68 1009.31 1009.77 1010.21 1010.49
1014.33 1013.95 1013.56 1013.15 1012.77 1012.41 1012.14 1011.83 1011.50 1011.24 1011.15 1011.06 1011.01 1010.41 1007.66 1004.44 1004.18 1003.61 1003.38 1003.43 1003.37 1003.47 1003.52 1003.61 1004.13 1004.86 1004.99 1005.53 1005.93 1005.91 1005.88 1005.74 1005.12 1005.05 1005.32 1006.12 1006.50 1006.51 1007.06 1007.82 1008.51 1009.01 1009.41 1009.79 1010.16
1014.22 1013.89 1013.48 1013.08 1012.69 1012.34 1011.86 1011.26 1011.09 1011.04 1011.12 1011.03 1010.58 1010.29 1006.96 1005.10 1004.35 1003.70 1003.25 1003.27 1003.52 1003.55 1003.76 1004.28 1005.08 1005.62 1006.36 1006.69 1007.10 1006.71 1006.38 1005.75 1005.27 1005.15 1005.47 1006.23 1006.43 1006.96 1007.40 1007.59 1007.89 1008.53 1008.98 1009.45 1009.43
1014.09 1013.76 1013.36 1012.97 1012.66 1012.36 1011.68 1011.17 1011.50 1011.22 1010.66 1009.29 1008.74 1007.94 1006.45 1005.32 1004.42 1003.87 1003.42 1003.56 1003.69 1004.16 1004.93 1005.31 1005.94 1006.43 1006.52 1006.75 1006.48 1006.21 1006.19 1005.95 1005.07 1004.86 1005.32 1006.13 1006.76 1007.00 1007.38 1007.76 1007.96 1008.21 1008.51 1008.88 1008.77
1013.95 1013.60 1013.20 1012.86 1012.56 1012.39 1012.36 1011.41 1010.04 1009.82 1009.42 1008.07 1007.83 1007.34 1006.38 1005.82 1005.19 1003.83 1003.43 1003.77 1004.11 1004.76 1005.28 1005.85 1005.96 1005.75 1005.99 1006.06 1006.10 1005.93 1005.67 1005.17 1004.65 1004.68 1005.61 1006.56 1007.34 1007.62 1007.64 1007.62 1007.73 1007.91 1008.24 1008.40 1008.57
1013.79 1013.41 1013.03 1012.70 1012.35 1012.34 1011.77 1010.33 1009.32 1009.17 1009.21 1007.32 1006.84 1006.34 1005.58 1005.56 1004.85 1003.79 1003.46 1003.93 1004.48 1004.95 1005.49 1005.82 1005.54 1005.43 1005.49 1005.56 1005.51 1005.27 1005.35 1005.00 1004.94 1005.34 1006.01 1007.00 1008.18 1008.15 1007.90 1007.72 1007.69 1007.68 1007.95 1008.26 1008.19
1013.47 1013.13 1012.81 1012.46 1012.74 1012.10 1010.95 1009.55 1009.19 1009.10 1008.99 1006.83 1005.96 1004.47 1004.65 1004.55 1004.13 1003.27 1003.33 1003.81 1004.48 1004.98 1005.43 1005.64 1005.21 1005.21 1004.94 1004.91 1005.16 1005.23 1004.70 1004.94 1005.48 1006.33 1007.19 1007.64 1009.58 1009.20 1008.79 1008.04 1007.73 1007.75 1007.61 1007.70 1007.89
1013.16 1012.84 1012.65 1012.69 1012.59 1011.70 1009.99 1009.49 1009.12 1009.01 1008.00 1005.56 1004.74 1003.69 1004.00 1004.14 1003.57 1003.27 1003.03 1003.30 1004.23 1004.91 1005.59 1005.67 1005.23 1004.80 1004.70 1004.51 1004.85 1004.89 1004.65 1005.47 1006.16 1007.34 1008.24 1009.23 1009.78 1009.62 1009.23 1008.45 1008.25 1008.17 1007.99 1008.03 1008.47
1012.78 1012.50 1012.41 1012.51 1012.43 1010.25 1009.65 1009.41 1009.16 1009.11 1006.87 1004.87 1003.91 1003.77 1004.02 1003.80 1003.48 1003.27 1003.11 1003.25 1004.02 1004.87 1005.36 1005.37 1004.75 1004.41 1003.92 1003.91 1004.38 1004.76 1005.59 1006.69 1007.88 1008.98 1010.21 1010.25 1010.57 1010.54 1010.09 1009.20 1008.92 1008.72 1008.77 1008.72 1009.29
1012.10 1011.84 1012.07 1011.63 1010.69 1009.62 1009.44 1009.54 1009.65 1008.21 1005.77 1004.70 1004.05 1003.75 1003.78 1004.02 1003.87 1003.65 1004.05 1004.34 1004.88 1005.58 1006.04 1005.58 1004.48 1003.71 1003.56 1004.11 1004.54 1005.31 1006.71 1008.33 1009.89 1010.77 1011.08 1010.79 1010.82 1010.36 1009.43 1009.06 1009.00 1008.85 1009.10 1009.03 1009.60
1011.25 1010.69 1010.60 1010.28 1009.90 1009.80 1009.56 1009.58 1009.23 1006.98 1005.51 1004.05 1003.74 1003.90 1004.03 1004.16 1004.16 1004.38 1004.65 1005.15 1005.40 1005.72 1006.52 1005.91 1004.87 1003.96 1003.39 1003.75 1004.40 1005.71 1006.94 1008.76 1010.54 1012.00 1011.60 1011.06 1010.90 1010.04 1009.32 1009.24 1009.15 1008.90 1009.03 1009.10 1009.27
1010.69 1010.67 1010.57 1008.83 1009.64 1009.87 1009.65 1009.75 1008.09 1006.66 1005.08 1004.10 1003.66 1003.89 1004.20 1004.10 1004.20 1004.59 1004.98 1005.32 1005.32 1005.43 1006.02 1006.01 1005.08 1003.90 1003.51 1003.64 1004.13 1005.99 1007.28 1008.47 1010.50 1012.29 1012.19 1011.64 1010.90 1010.18 1009.62 1009.47 1009.51 1009.43 1009.37 1008.52 1008.17
1010.82 1010.39 1009.32 1008.34 1008.95 1009.29 1009.31 1008.87 1007.50 1005.97 1004.80 1003.95 1003.77 1003.66 1004.08 1004.17 1004.58 1004.78 1004.99 1004.54 1004.78 1004.86 1004.96 1005.96 1005.73 1004.48 1004.06 1004.01 1004.73 1005.35 1007.07 1008.73 1010.50 1012.33 1012.87 1012.10 1011.53 1010.68 1010.20 1009.64 1009.69 1009.45 1009.10 1008.96 1009.29
1010.67 1010.07 1008.86 1008.53 1008.89 1009.04 1009.33 1008.66 1006.98 1005.25 1004.71 1003.94 1003.64 1003.63 1003.85 1004.10 1004.38 1004.48 1004.38 1004.08 1004.00 1004.80 1005.16 1006.03 1006.45 1005.41 1004.66 1005.34 1005.65 1006.34 1007.50 1009.34 1010.93 1012.11 1012.74 1012.66 1011.54 1009.94 1009.73 1009.59 1009.47 1009.19 1009.13 1009.17 1009.19
1011.01 1010.15 1008.88 1008.93 1009.10 1009.79 1009.23 1007.85 1006.45 1004.98 1004.10 1003.82 1003.27 1003.30 1003.44 1003.51 1003.83 1003.88 1003.81 1003.43 1003.40 1004.08 1005.44 1005.90 1006.94 1007.03 1006.69 1006.13 1006.08 1006.37 1007.67 1009.05 1011.11 1012.67 1013.07 1012.62 1010.96 1009.96 1009.58 1009.51 1009.79 1009.85 1009.84 1010.03 1010.02
1011.72 1010.58 1008.91 1008.77 1009.17 1009.40 1008.50 1007.37 1006.15 1004.94 1003.77 1003.32 1002.83 1002.41 1002.31 1002.91 1003.37 1003.27 1003.11 1002.71 1003.18 1003.82 1004.45 1005.67 1006.97 1007.71 1007.57 1007.15 1006.63 1007.20 1008.22 1009.26 1010.27 1011.42 1012.58 1012.65 1011.11 1010.28 1009.84 1009.72 1009.81 1009.93 1009.91 1009.99 1010.35
1011.97 1010.91 1009.78 1009.05 1008.92 1008.62 1008.16 1006.88 1005.72 1004.34 1003.34 1002.69 1002.07 1001.67 1002.03 1002.49 1002.68 1002.82 1002.85 1002.74 1003.12 1003.60 1004.08 1004.97 1007.44 1007.77 1007.69 1007.50 1007.68 1008.10 1008.59 1009.35 1010.03 1011.38 1012.32 1012.03 1011.37 1011.03 1011.01 1010.78 1010.49 1010.55 1010.76 1010.97 1011.15
1011.90 1010.92 1009.80 1009.40 1008.79 1008.50 1007.80 1006.73 1005.78 1004.79 1003.03 1002.05 1001.32 1001.03 1001.32 1002.26 1002.60 1002.91 1002.86 1002.82 1003.40 1004.01 1004.67 1005.55 1007.68 1008.00 1008.24 1008.05 1008.10 1008.82 1009.22 1009.70 1010.31 1010.79 1011.31 1011.47 1011.73 1011.70 1011.55 1011.46 1011.36 1011.46 1011.68 1011.98 1012.31
1012.08 1011.30 1009.99 1009.30 1008.57 1008.18 1007.54 1006.43 1005.28 1004.33 1003.51 1001.87 1001.31 1000.45 1000.65 1001.15 1001.18 1002.21 1002.44 1003.15 1003.61 1004.64 1005.36 1006.45 1008.30 1008.60 1009.17 1008.90 1009.01 1009.60 1009.76 1009.94 1010.46 1011.02 1011.42 1011.76 1012.31 1012.37 1012.28 1012.14 1012.21 1012.49 1012.55 1013.07 1013.45
1012.26 1011.44 1010.89 1009.67 1008.75 1008.21 1007.29 1006.02 1004.96 1004.17 1002.12 1001.47 1000.91 1001.10 1000.47 1000.49 1000.74 1001.43 1001.88 1002.89 1003.39 1004.46 1006.11 1007.23 1008.53 1009.70 1010.28 1009.94 1009.69 1010.46 1010.81 1010.83 1011.16 1011.41 1011.64 1012.19 1012.73 1012.89 1013.05 1013.09 1013.41 1013.67 1013.77 1013.96 1014.18
Wind_Speed
14 15 15 15 15 14 14 13 14 15 16 17 17 19 19 19 18 4 5 11 6 8 7 4 1 2 3 1 3 3 4 1 3 4 3 5 3 3 4 8 2 3 5 10 17
15 15 15 15 15 15 14 13 14 14 15 16 17 19 17 18 4 3 13 13 12 12 4 3 4 1 3 1 2 4 4 7 6 5 4 6 4 7 4 5 5 10 14 18 17
16 16 16 16 15 15 14 13 13 14 14 16 16 17 17 13 6 4 6 12 11 10 5 4 2 2 2 3 3 4 6 5 4 4 4 6 4 1 9 2 5 13 15 18 16
15 16 16 16 16 15 14 13 13 13 14 14 16 17 19 3 3 3 1 4 12 9 6 5 4 3 2 3 4 3 8 6 3 7 4 8 6 4 2 2 12 18 21 17 16
15 16 16 16 16 15 14 13 13 13 13 13 14 15 5 2 10 2 4 1 8 7 4 2 1 3 1 4 4 4 5 3 0 9 6 5 4 3 2 9 16 15 16 17 16
15 16 16 16 16 15 14 13 12 13 12 12 13 14 2 3 4 3 8 5 3 4 3 3 1 4 3 4 2 2 5 0 4 7 5 4 2 2 3 14 15 18 16 14 15
16 16 16 17 16 15 14 13 13 13 11 10 10 4 1 16 1 8 5 3 3 4 1 4 4 0 2 6 4 4 5 1 3 6 4 7 0 5 6 13 16 14 15 14 12
16 16 17 17 16 16 14 14 14 12 10 8 6 1 9 6 4 9 4 5 3 4 4 6 5 4 3 3 7 1 6 2 4 8 2 6 8 6 11 13 12 14 13 13 16
16 17 17 17 16 16 15 16 15 11 7 5 1 1 11 11 3 4 6 3 3 1 2 2 3 3 6 4 5 7 2 2 6 8 6 4 7 5 11 12 10 12 13 12 12
17 17 17 17 16 16 18 15 4 3 2 4 3 3 6 2 5 6 1 0 1 2 5 7 6 4 5 7 1 5 4 4 5 7 3 6 8 3 9 13 14 11 10 12 13
17 17 17 17 15 13 10 2 4 3 1 9 6 4 4 10 3 1 2 3 2 8 3 3 6 1 7 5 5 5 3 6 6 5 5 7 5 5 10 10 9 10 9 10 14
17 15 17 14 14 11 1 2 4 2 6 10 5 7 5 1 5 3 1 4 2 4 1 7 3 7 3 4 5 5 2 5 2 4 6 5 2 1 6 10 9 10 10 10 7
18 15 17 16 14 2 2 6 3 6 1 7 6 6 6 8 6 6 6 5 4 3 3 5 5 4 2 0 4 3 2 2 3 2 5 7 7 7 4 3 6 8 6 7 9
19 16 14 18 4 3 4 1 4 5 5 5 4 7 5 5 4 5 4 8 1 7 5 3 3 3 4 4 5 1 6 3 5 4 3 5 3 4 5 8 5 6 10 9 9
18 14 12 5 5 3 0 7 3 4 2 2 3 1 2 8 2 2 4 4 9 6 7 7 2 3 5 3 5 9 1 3 3 5 4 8 6 7 6 6 4 6 5 3 5
18 12 8 1 3 7 6 6 3 7 5 1 5 6 5 2 1 2 3 5 4 5 1 6 3 5 8 1 4 3 4 8 6 4 4 4 5 6 4 4 5 3 5 5 8
19 13 6 4 4 2 2 4 6 4 4 4 5 4 4 4 1 2 4 3 5 5 2 5 6 4 3 0 1 5 8 5 6 6 5 1 2 7 6 4 4 6 6 5 7
23 6 7 6 2 4 3 5 2 4 6 3 4 3 7 5 4 3 5 4 2 6 4 4 5 4 3 7 8 2 7 8 5 3 4 2 1 5 5 5 4 3 5 6 9
14 0 2 6 11 2 6 3 7 5 4 4 3 6 3 4 4 3 7 9 9 7 7 4 5 6 2 3 6 3 2 4 10 3 3 3 3 6 5 6 4 5 5 10 14
2 2 4 4 12 3 5 5 5 5 5 2 5 4 6 4 5 7 9 6 6 9 5 3 2 1 5 2 6 3 6 4 4 4 3 5 4 6 6 8 6 8 9 7 9
2 2 3 4 2 5 4 7 6 7 4 4 2 4 4 7 8 6 9 1 7 5 6 6 4 8 4 5 1 2 3 8 7 4 6 2 7 6 8 8 10 9 6 4 6
3 3 2 2 5 1 3 6 3 5 1 7 4 8 8 8 6 4 8 7 6 11 10 6 6 0 1 6 3 3 4 5 7 3 2 3 7 3 7 7 1 6 5 5 6
2 1 3 2 3 2 5 5 5 4 5 3 4 8 6 7 3 5 6 5 8 8 11 9 1 3 8 8 5 6 3 4 6 4 5 6 7 6 6 2 4 6 1 2 3
1 3 4 4 1 5 2 5 5 4 7 7 6 6 4 4 3 4 7 2 9 7 10 11 4 7 9 7 4 3 2 3 4 4 5 6 3 5 7 4 1 4 6 5 8
0 1 3 4 4 4 1 4 6 5 4 4 3 7 8 5 3 5 3 4 5 6 6 6 5 3 4 5 7 3 3 2 2 1 5 6 5 3 4 3 4 5 7 9 9
2 3 4 1 2 3 4 4 6 5 5 7 5 2 5 8 11 10 9 4 6 3 5 2 3 3 5 8 8 6 5 4 5 4 5 7 5 2 3 8 12 9 11 11 9
3 3 1 3 2 3 5 5 5 1 8 10 4 4 6 2 6 5 7 6 6 7 4 5 6 4 1 4 4 4 4 2 3 3 2 4 4 2 7 10 6 7 8 8 8
Wind_Direction
341 339 337 333 330 328 325 323 322 323 323 324 326 323 322 324 319 145 217 225 181 140 189 77 340 261 105 217 238 115 59 242 246 158 207 170 138 125 111 133 91 102 124 138 143
339 339 336 333 330 328 326 323 321 321 323 323 326 322 322 327 302 240 239 224 186 154 143 213 283 124 340 204 225 109 134 217 209 179 185 179 142 163 106 131 60 77 102 126 143
337 336 335 332 330 329 325 321 319 319 321 322 323 320 319 321 334 250 285 225 140 172 207 179 141 158 257 131 207 180 217 186 249 173 142 142 142 95 115 250 163 152 141 147 151
337 336 334 332 331 327 324 320 317 318 319 321 323 320 318 284 220 150 293 124 167 172 156 193 166 178 191 222 215 165 255 175 243 139 114 162 117 108 154 214 142 156 150 153 163
336 335 334 332 329 327 323 318 316 317 317 320 323 325 344 28 252 249 50 139 143 158 199 196 350 111 196 241 287 173 290 171 116 122 152 119 83 126 112 106 129 136 151 170 178
336 334 333 331 328 326 321 315 312 312 313 317 322 321 343 274 236 43 338 340 153 157 171 163 255 223 251 231 185 264 191 90 135 146 123 90 65 29 118 128 140 152 168 183 189
335 333 333 331 328 325 320 312 306 304 305 309 320 329 319 235 356 330 312 240 191 164 132 205 195 136 354 319 318 325 105 14 163 176 142 133 128 228 137 144 154 173 174 186 207
336 333 333 332 328 324 318 308 302 298 298 294 311 4 251 262 304 294 257 295 203 190 184 204 174 190 154 274 1 95 58 123 248 134 228 114 265 219 154 151 170 180 182 190 204
337 335 334 332 330 323 315 305 295 287 278 281 332 84 268 315 309 285 196 240 321 271 239 125 96 69 19 44 22 8 113 212 297 182 133 137 258 217 165 164 181 191 191 194 211
337 336 335 333 330 327 318 299 269 295 198 215 259 2 276 306 311 322 347 289 332 313 42 41 49 61 40 52 356 295 336 294 218 196 166 169 254 154 185 181 189 198 198 198 209
336 336 336 334 332 333 347 39 29 348 268 192 203 243 320 301 243 225 171 145 90 57 80 3 53 285 247 190 202 251 190 223 266 200 129 190 256 249 194 199 200 204 208 208 216
332 332 335 335 328 324 318 138 194 230 306 225 232 271 269 187 313 268 155 102 76 129 122 19 290 240 216 177 200 232 274 290 294 101 101 174 207 300 200 228 223 206 214 222 234
332 330 333 330 321 305 184 233 20 28 117 291 187 202 216 144 220 254 126 133 136 101 106 154 236 317 284 175 349 339 200 281 110 67 66 107 347 346 0 191 216 215 215 209 226
332 329 330 330 311 315 250 296 323 173 57 260 233 266 152 165 277 210 211 140 71 157 144 256 298 273 23 324 133 267 199 153 106 78 204 42 233 301 317 289 259 250 217 203 213
329 324 325 344 299 216 25 339 107 62 53 197 179 96 151 154 170 220 203 70 146 148 110 240 242 1 351 201 166 231 136 77 59 79 74 357 82 269 347 305 338 338 292 168 102
327 314 312 239 227 245 318 330 60 43 258 220 143 154 128 357 13 88 81 54 133 114 38 224 263 217 208 70 178 123 85 45 56 75 41 282 118 299 269 273 318 14 41 77 82
323 296 221 180 225 323 304 68 46 145 323 193 175 155 132 149 184 102 111 94 134 103 5 321 261 290 165 197 73 78 55 357 12 16 215 133 62 226 269 267 239 306 42 73 86
327 310 212 217 281 333 72 56 158 250 246 281 133 95 150 161 200 111 100 158 44 93 121 138 335 194 181 191 181 100 146 152 175 199 262 289 222 253 255 318 299 11 127 136 122
326 169 221 244 205 300 84 84 216 215 270 339 78 106 199 202 158 121 166 185 193 163 162 136 276 287 202 176 128 178 129 162 104 354 51 282 282 318 325 303 318 253 247 185 165
310 283 258 100 150 88 85 232 246 216 326 359 183 157 167 189 142 155 182 189 186 194 135 177 351 297 275 120 40 129 151 75 16 133 221 303 279 239 229 247 245 247 233 281 60
353 55 330 108 168 59 160 233 276 255 225 6 295 162 176 175 178 192 193 219 181 144 128 141 118 287 35 20 215 51 50 55 110 104 153 178 268 222 227 209 217 237 217 234 75
336 71 333 121 65 27 170 206 266 284 191 252 208 196 187 170 162 189 182 215 163 146 164 192 137 194 234 299 273 103 118 117 117 217 52 138 271 346 268 210 115 282 318 349 58
22 266 331 66 139 267 284 275 239 267 257 247 257 205 176 173 161 182 181 201 154 153 166 180 235 58 353 347 354 57 49 96 107 101 187 138 261 9 356 202 198 191 237 15 62
351 83 339 41 120 143 234 256 261 267 255 212 247 149 119 169 271 192 210 135 170 171 100 93 98 159 181 196 149 99 79 117 104 112 169 224 285 348 346 345 57 35 42 25 27
179 255 196 219 266 177 282 295 303 315 264 247 264 220 165 131 105 169 185 66 52 171 78 107 116 105 57 84 79 80 5 53 9 185 148 196 144 344 327 344 69 89 68 57 44
20 20 350 256 313 132 162 266 212 241 227 270 216 308 189 157 175 181 134 143 182 52 92 43 144 129 52 48 92 72 31 47 54 89 68 112 64 316 35 78 65 53 69 63 52
323 312 104 296 316 113 211 241 239 22 260 238 299 322 81 321 127 81 67 93 117 124 110 77 124 85 159 22 56 23 333 7 50 20 161 148 161 190 54 62 49 57 60 62 46